Location: Krasnoyarskiy Pitomnik
(51.1333°N, 71.6167°E)
Time: 04:24:23
(UTC+00:00)

Transit 2A - Pass Details

Date: 20 April 2024
Orbit: 594 x 958 km, 66.7° (Epoch: 21 May)

Event Time Altitude Azimuth Distance (km) Brightness Sun altitude
Rises 03:12:10 0° 243° (WSW) 2,876 8.6 27.6°
Reaches altitude 10° 03:14:29 10° 252° (WSW) 2,006 7.8 28.0°
Maximum altitude 03:18:41 37° 321° (NW) 1,031 6.6 28.6°
Drops below altitude 10° 03:23:15 10° 29° (NNE) 2,188 8.6 29.3°
Sets 03:25:54 0° 37° (NE) 3,176 9.4 29.7°
